Location: Bonaustraße
(48.4603°N, 11.9280°E)
Time: 21:16:09
(UTC+02:00)

AO-92 - Pass Details

Date: 05 August 2021
Orbit: 484 x 494 km, 97.4° (Epoch: 17 September)

Event Time Altitude Azimuth Distance (km) Brightness Sun altitude
Exits shadow 22:52:31 43° 136° (SE) 696 ? -17.2°
Maximum altitude 22:53:30 64° 74° (ENE) 544 ? -17.3°
Drops below altitude 10° 22:57:04 10° 353° (N) 1,679 ? -17.6°
Sets 22:59:10 0° 350° (N) 2,567 ? -17.8°
